Content
SEND FEEDBACK

Daily
Averages
Monthly
Summary
United States of America

WICHITA, KANSAS


Home > North America > United States > Kansas
Elevation: 1321 feet     Latitude: 37 39N     Longitude: 097 26W

WEATHER
 
SELECT A DAY
Number of Records: 194,718;   Date Range: 1/1/95 - 10/20/14
 
SHARE

PRINT THIS DATA

[ ← Previous Day ]
WEATHER ALMANAC - JANUARY 31, 2013
[ Next Day → ]
[ °C ]   °F
Weather ElementAverageHighLow
Temperature24.7 °F30.9 °F (9:53 am)17.1 °F (8:53 pm)
Dewpoint15.1 °F21.9 °F (8:53 am)6.1 °F (5:53 pm)
Humidity67.6 %81 % (1:53 am)49 % (4:53 pm)
Barometer30.25 in30.49 in (7:53 pm)29.98 in (4:53 am)
Wind Speed12.2 mph24.2 mph (11:53 am)
Wind Gust31.1 mph (11:53 am)
Weather ElementAverage
Visibility8.2 mi
Wind DirectionS (184.6 °)

Weather ElementTotal
Precipitation0.04 in
Heating Degree Days41 (Base 65)
Averaged from 28 records on January 31, 2013
WEATHER CONDITIONS BREAKOUT
WIND DIRECTION BREAKOUT
WEATHER BY HOUR - JANUARY 31, 2013
[ °C ]   °F
Local TimeTemperatureDewpointHumidityBarometerVisibilityWind DirectionWind SpeedGust SpeedPrecipitationEventsConditions
1:53 AM21.0 °F16.0 °F81 %30.01 in10.0 miSSW (210°)8.1 mphScattered Clouds
2:53 AM21.9 °F16.0 °F78 %30.02 in10.0 miSW (220°)4.6 mphPartly Cloudy
3:53 AM21.0 °F15.1 °F78 %30.01 in10.0 miWSW (250°)4.6 mphPartly Cloudy
4:53 AM21.2 °F14.0 °F74 %29.98 in10.0 miCalmPartly Cloudy
5:53 AM24.1 °F16.0 °F71 %30.02 in10.0 miWNW (290°)3.5 mphScattered Clouds
6:53 AM27.0 °F19.0 °F72 %30.04 in10.0 miWNW (300°)3.5 mphMostly Cloudy
7:53 AM28.9 °F21.0 °F72 %30.07 in10.0 miNorth (350°)6.9 mphMostly Cloudy
8:53 AM30.0 °F21.9 °F72 %30.12 in10.0 miNorth (360°)11.5 mphMostly Cloudy
9:53 AM30.9 °F21.9 °F69 %30.17 in10.0 miNorth (350°)11.5 mphOvercast
10:53 AM30.0 °F19.9 °F66 %30.24 in10.0 miNorth (360°)18.4 mphOvercast
11:41 AM26.6 °F21.2 °F80 %30.21 in0.5 miNorth (10°)18.4 mph21.9 mphSnowSnow
11:53 AM27.0 °F21.9 °F81 %30.26 in0.5 miNorth (10°)24.2 mph31.1 mph0.00 inSnowLight Snow
12:00 PM26.6 °F21.2 °F80 %30.21 in0.5 miNorth (10°)16.1 mph31.1 mph0.00 inSnowLight Snow
12:11 PM28.4 °F21.2 °F74 %30.22 in1.0 miNorth (10°)16.1 mph25.3 mph0.01 inSnowLight Snow
12:25 PM26.6 °F19.4 °F74 %30.22 in1.0 miNNE (20°)20.7 mph27.6 mph0.01 inSnowLight Snow
12:33 PM28.4 °F19.4 °F69 %30.23 in6.0 miNorth (10°)18.4 mph26.5 mph0.01 inSnowLight Snow
12:53 PM28.9 °F19.0 °F67 %30.30 in10.0 miNorth (360°)18.4 mph27.6 mph0.01 inOvercast
1:53 PM28.4 °F17.6 °F64 %30.26 in10.0 miNorth (10°)20.7 mph27.6 mphOvercast
2:53 PM28.0 °F14.0 °F56 %30.32 in10.0 miNorth (10°)24.2 mph31.1 mphMostly Cloudy
3:53 PM27.0 °F10.9 °F51 %30.35 in10.0 miNorth (360°)20.7 mph28.8 mphMostly Cloudy
4:53 PM26.1 °F9.0 °F49 %30.37 in10.0 miNorth (360°)12.7 mph24.2 mphPartly Cloudy
5:53 PM21.9 °F6.1 °F51 %30.41 in10.0 miNorth (360°)16.1 mphPartly Cloudy
6:53 PM19.9 °F7.0 °F57 %30.45 in10.0 miNorth (350°)8.1 mphPartly Cloudy
7:53 PM19.9 °F6.1 °F55 %30.49 in10.0 miNorth (360°)8.1 mphClear
8:53 PM17.1 °F7.0 °F65 %30.49 in10.0 miNNE (30°)6.9 mphClear
9:53 PM18.0 °F7.0 °F62 %30.49 in10.0 miNE (50°)6.9 mphScattered Clouds
10:53 PM18.0 °F8.1 °F65 %30.48 in10.0 miENE (70°)5.8 mphScattered Clouds
11:53 PM19.0 °F7.0 °F59 %30.46 in10.0 miEast (90°)6.9 mphOvercast
Hourly data recorded from KICT, located miles away from Wichita, Kansas







STORIES FROM OUR PARTNERS